Other Public Products
Issued by NWS Grand Forks, ND

Home | Current Version | Previous Version | Graphics & Text | Print | Product List | Glossary On
Versions: 1 2 3 4 5 6 7 8 9 10 11 12 13 14 15 16 17 18 19 20 21 22 23 24 25 26 27 28 29 30 31 32 33 34 35 36 37 38 39 40 41 42 43 44 45 46 47 48 49 50
000
FPUS83 KFGF 180631
OPUFGF
PRAIRIE TO PINES WEATHER ROUNDUP
NATIONAL WEATHER SERVICE EASTERN NORTH DAKOTA/GRAND FORKS ND
100 AM CDT FRI APR 18 2014

 **SATELLITE DATA USED TO AUGMENT SKY COVER AT AUTOMATED STATIONS**
 *****  WEATHER ACROSS EASTERN NORTH DAKOTA  *****

CITY           SKY/WX    TMP DP  RH WIND       PRES   REMARKS
GRAND FORKS    CLOUDY    32  21  64 E6        30.30R
6HR MIN TEMP:  31; 6HR MAX TEMP:  41;

GRAND FORKS AF CLOUDY    32  20  60 E7        30.29S
GRAND CITY NWS   N/A     32 N/A N/A E6          N/A
BUXTON           N/A     32  28  83 NE5         N/A
DEVILS LAKE    CLOUDY    34  16  47 SE16      30.23S WCI  23
6HR MIN TEMP:  32; 6HR MAX TEMP:  39;

FARGO          MOCLDY    33  21  61 NE7       30.28S
6HR MIN TEMP:  32; 6HR MAX TEMP:  44;

WAHPETON ARPT  CLOUDY    36  19  51 E5        30.28S
$$

 *****  WEATHER ACROSS CENTRAL AND WESTERN NORTH DAKOTA  *****

CITY           SKY/WX    TMP DP  RH WIND       PRES   REMARKS
JAMESTOWN      MOCLDY    31  22  69 E9        30.21S WCI  23
6HR MIN TEMP:  31; 6HR MAX TEMP:  43;

BISMARCK       PTCLDY    34  24  67 SE14      30.13S WCI  25
6HR MIN TEMP:  31; 6HR MAX TEMP:  45;

MINOT          FAIR      33  22  63 E10       30.11F WCI  25
6HR MIN TEMP:  33; 6HR MAX TEMP:  41;

MINOT AFB      CLOUDY    34  23  63 SE13      30.11S WCI  25
6HR MIN TEMP:  33; 6HR MAX TEMP:  40;

GARRISON         N/A     32  24  72 SE9       30.09S WCI  24
6HR MIN TEMP:  32; 6HR MAX TEMP:  42;

WILLISTON      LGT RAIN  39  27  62 SE8       29.99F
6HR MIN TEMP:  39; 6HR MAX TEMP:  44; 6HR PCP: TRACE;

DICKINSON      CLOUDY    35  24  64 SE14      29.98F
6HR MIN TEMP:  35; 6HR MAX TEMP:  44;

HETTINGER      CLOUDY    35  25  66 SE14      30.00F
6HR MIN TEMP:  34; 6HR MAX TEMP:  46;

$$

 *****  OTHER OBSERVATIONS NORTHEAST NORTH DAKOTA  *****

CITY           SKY/WX    TMP DP  RH WIND       PRES   REMARKS
WALHALLA       FAIR      27  16  63 CALM      30.30S
LANGDON        CLOUDY    32  16  51 E13       30.24S WCI  22
CAVALIER       FAIR      28  21  74 E3        30.30S
GRAFTON        MOCLDY    30  19  64 E8        30.30S WCI  23
CANDO          CLOUDY    32  18  55 SE15      30.23S WCI  22
FORT TOTTEN      N/A     32  15  49 E12       29.95  WCI  23
ROLLA          CLOUDY    30  16  55 SE14      30.22R WCI  20
RUGBY          CLOUDY    32  19  59 SE17G24   30.18F WCI  21
 ***** THE ABOVE OBSERVATIONS ARE NON NWS ARE NOT QUALITY
        CONTROLLED AND MAY MIS-REPORT RAIN FOR SNOW...
$$

 *****  OTHER OBSERVATIONS SOUTHEAST NORTH DAKOTA *****

CITY           SKY/WX    TMP DP  RH WIND       PRES   REMARKS
COOPERSTOWN    CLOUDY    32  19  59 E12       30.25R WCI  23
VALLEY CITY    MIX PCPN  32  18  55 E13       30.24S WCI  22
OAKES          CLOUDY    32  25  74 SE9       30.22S WCI  24
GWINNER        CLOUDY    34  27  75 E6        30.25S
SHEYENNE NWR     N/A     33  21  61 SE3       29.95S
BUFFALO          N/A     32  19  58 E12         N/A  WCI  23
WYNDMERE       NOT AVBL
 ***** THE ABOVE OBSERVATIONS ARE NON NWS ARE NOT QUALITY
       CONTROLLED AND MAY MIS-REPORT RAIN FOR SNOW...
$$

  *****  WEATHER ACROSS NORTHERN MINNESOTA  *****

CITY           SKY/WX    TMP DP  RH WIND       PRES   REMARKS
FLAG ISLAND    FAIR      25  12  58 N3        30.31R
WARROAD        FAIR      21  16  79 CALM      30.32R
ROSEAU         FAIR      27  19  74 CALM      30.31S
HALLOCK        CLOUDY    28  18  64 E8        30.30F WCI  20
THF RVR FALLS  FAIR      30  14  51 E6        30.30S WCI  24
6HR MIN TEMP:  28; 6HR MAX TEMP:  41;

HALSTAD          N/A     31  23  73 E8          N/A  WCI  23
FOSSTON        FAIR      27  10  50 E3        30.29S
BAUDETTE       FAIR      23  17  78 CALM      30.30S
6HR MIN TEMP:  22; 6HR MAX TEMP:  37;

WASKISH        FAIR      19  18  93 CALM      30.31R
CROOKSTON      FAIR      30  21  69 E6        30.31S WCI  24
$$
  *****  WEATHER ACROSS CENTRAL AND WEST MINNESOTA  *****

CITY           SKY/WX    TMP DP  RH WIND       PRES   REMARKS
BEMIDJI        FAIR      26  10  52 CALM      30.28S
PARK RAPIDS    FAIR      29   8  41 NE5       30.27S WCI  24
6HR MIN TEMP:  29; 6HR MAX TEMP:  43;

WADENA         FAIR      27  18  69 CALM      30.27S
DETROIT LAKES  FAIR      32  19  59 CALM      30.28S
MOORHEAD       FAIR      34  25  69 E5        30.29F
FERGUS FALLS   MOCLDY    34  18  51 SE5       30.27S
ELBOW LAKE     CLOUDY    32  26  76 E3        30.28S
6HR MIN TEMP:  30; 6HR MAX TEMP:  42;

MORRIS MN      CLOUDY    30  25  80 SE5       30.28R
STAPLES        FAIR      27  18  69 CALM      30.27S
WHEATON        CLOUDY    34  28  80 CALM      30.30S
$$
  *****  WEATHER ELSEWHERE ACROSS MINNESOTA  *****

CITY           SKY/WX    TMP DP  RH WIND       PRES   REMARKS
DULUTH         FAIR      24  18  77 CALM      30.29R
6HR MIN TEMP:  21; 6HR MAX TEMP:  35;

INTRNTL FALLS  FAIR      21  17  84 CALM      30.30S
6HR MIN TEMP:  21; 6HR MAX TEMP:  38;

ELY            FAIR      19  18  93 CALM      30.29S
CLOQUET        FAIR      25  21  86 CALM      30.30S
BRAINERD       FAIR      34  21  59 SE7       30.29R
6HR MIN TEMP:  28; 6HR MAX TEMP:  48;

HIBBING        FAIR      22  19  89 CALM      30.29S
6HR MIN TEMP:  22; 6HR MAX TEMP:  35;

ALEXANDRIA     FAIR      29  22  75 W5        30.29S WCI  24
6HR MIN TEMP:  29; 6HR MAX TEMP:  40;

SAINT CLOUD    FAIR      28  22  78 CALM      30.30S
6HR MIN TEMP:  25; 6HR MAX TEMP:  41;

MINNEAPOLIS    FAIR      33  26  75 CALM      30.33R
6HR MIN TEMP:  32; 6HR MAX TEMP:  41;

$$

  *****  WEATHER ACROSS SOUTH DAKOTA  *****

CITY           SKY/WX    TMP DP  RH WIND       PRES   REMARKS
SIOUX FALLS    CLOUDY    35  26  69 E9        30.25S
6HR MIN TEMP:  35; 6HR MAX TEMP:  43;

BROOKINGS      NOT AVBL
WATERTOWN      CLOUDY    32  18  56 E8        30.23F WCI  25
6HR MIN TEMP:  31; 6HR MAX TEMP:  39;

HURON          PTCLDY    36  25  64 SE13      30.20S
6HR MIN TEMP:  36; 6HR MAX TEMP:  44;

SISSETON         N/A     33  23  66 S6        30.26S
ABERDEEN       CLOUDY    35  22  58 SE10      30.21S
6HR MIN TEMP:  28; 6HR MAX TEMP:  44;

MITCHELL       MOCLDY    37  26  64 SE12      30.21S
PIERRE         CLOUDY    38  26  62 SE16      30.08F
6HR MIN TEMP:  37; 6HR MAX TEMP:  45;

MOBRIDGE       PTCLDY    35  22  58 SE17      30.09F WCI  25
RAPID CITY     CLOUDY    38  33  82 SE9       29.94F
6HR MIN TEMP:  38; 6HR MAX TEMP:  53;

$$

  *****  SOME WEATHER IN NEARBY STATES *****

CITY           SKY/WX    TMP DP  RH WIND       PRES   REMARKS
GLASGOW MT     MOCLDY    44  31  60 E20       29.80F
6HR MIN TEMP:  43; 6HR MAX TEMP:  56;

GREAT FALLS MT CLOUDY    46  42  86 CALM      29.68F
6HR MIN TEMP:  45; 6HR MAX TEMP:  57; 6HR PCP:  0.03;

CHEYENNE WY    CLEAR     42  30  62 S10       30.01R
6HR MIN TEMP:  40; 6HR MAX TEMP:  56;

SCOTTSBLUFF NE CLEAR     48  34  58 SE10      29.95S
6HR MIN TEMP:  42; 6HR MAX TEMP:  59;

OMAHA NE       FAIR      37  29  72 N3        30.27S
6HR MIN TEMP:  35; 6HR MAX TEMP:  55;

DES MOINES IA  FAIR      41  31  67 E8        30.30R
6HR MIN TEMP:  41; 6HR MAX TEMP:  55;

DAVENPORT IA   FAIR      36  31  82 NW9       30.31R
6HR MIN TEMP:  36; 6HR MAX TEMP:  53;

CHICAGO IL     CLOUDY    47  36  65 SE6       30.26R
6HR MIN TEMP:  47; 6HR MAX TEMP:  57;

EAU CLAIRE WI  FAIR      25  24  96 CALM      30.32R
6HR MIN TEMP:  25; 6HR MAX TEMP:  38;

LA CROSSE WI   MOCLDY    37  26  64 N6        30.33R
6HR MIN TEMP:  37; 6HR MAX TEMP:  40;

$$

  *****  SOME NATIONAL WEATHER *****

CITY           SKY/WX    TMP DP  RH WIND       PRES   REMARKS



USA.gov is the U.S. government's official web portal to all federal, state and local government web resources and services.